New Roads False River Regiona, LA

4:49 PM CST on November 16, 2019 (GMT -0600)
False River

Weather History for KHZR - August, 2019

Change the Weather History Date:

Wednesday, August 14, 2019

  Actual Average (WUND) Record (WUND)
Temperature  
Mean Temperature 85 °F -  
Max Temperature 95 °F - - (-1)
Min Temperature 75 °F - - (-1)
Cooling Degree Days 20    
Growing Degree Days 35 (Base 50)    
Moisture  
Dew Point 76 °F    
Average Humidity 84    
Maximum Humidity 100    
Minimum Humidity 53    
Precipitation  
Precipitation 0.01 in - - ()
Sea Level Pressure  
Sea Level Pressure 29.94 in    
Wind  
Wind Speed 2 mph (WNW)    
Max Wind Speed 21 mph    
Max Gust Speed 36 mph    
Visibility 10 miles    
Events Rain , Thunderstorm    
Averages and records for this station are not official NWS values.
T = Trace of Precipitation, MM = Missing Value Source: NWS Daily Summary

Daily Weather History Graph

Daily Weather History Graph

Search for Another Location

Airport or City:

Astronomy

Aug. 14, 2019 Rise Set
Actual Time 6:31 AM CDT 7:49 PM CDT
Civil Twilight 6:06 AM CDT 8:14 PM CDT
Nautical Twilight 5:35 AM CDT 8:44 PM CDT
Astronomical Twilight 5:04 AM CDT 9:16 PM CDT
Moon 7:38 PM CDT (8/14) 5:36 AM CDT (8/14)
Length of Visible Light 14h 08m
Length of Day
13h 17m
Waxing Gibbous, 99% of the Moon is Illuminated
Aug 14
Waxing Gibbous
Aug 15
Full
Aug 23
Last Quarter
Aug 30
New
Sep 5
First Quarter

Hourly Weather History & Observations

Time (CDT) Temp. Heat Index Dew Point Humidity Pressure Visibility Wind Dir Wind Speed Gust Speed Precip Events Conditions
12:17 AM 78.8 °F - 73.4 °F 83% 29.94 in 10.0 mi Calm Calm - N/A   Clear
12:37 AM 78.8 °F - 73.4 °F 83% 29.94 in 10.0 mi Calm Calm - N/A   Clear
12:56 AM 78.8 °F - 75.2 °F 89% 29.94 in 10.0 mi Calm Calm - N/A   Clear
1:16 AM 78.8 °F - 75.2 °F 89% 29.94 in 10.0 mi Calm Calm - N/A   Scattered Clouds
1:36 AM 78.8 °F - 75.2 °F 89% 29.94 in 10.0 mi Calm Calm - N/A   Clear
1:58 AM 78.8 °F - 75.2 °F 89% 29.94 in 10.0 mi Calm Calm - N/A   Mostly Cloudy
2:16 AM 78.8 °F - 75.2 °F 89% 29.94 in 10.0 mi Calm Calm - N/A   Overcast
2:36 AM 77.0 °F - 75.2 °F 94% 29.93 in 10.0 mi Calm Calm - N/A   Overcast
2:57 AM 77.0 °F - 75.2 °F 94% 29.93 in 10.0 mi Calm Calm - N/A   Scattered Clouds
3:15 AM 77.0 °F - 75.2 °F 94% 29.93 in 10.0 mi Calm Calm - N/A   Clear
3:36 AM 77.0 °F - 75.2 °F 94% 29.92 in 10.0 mi Calm Calm - N/A   Clear
3:57 AM 75.2 °F - 75.2 °F 100% 29.92 in 10.0 mi Calm Calm - N/A   Clear
4:17 AM 75.2 °F - 75.2 °F 100% 29.91 in 10.0 mi Calm Calm - N/A   Clear
4:36 AM 75.2 °F - 75.2 °F 100% 29.91 in 10.0 mi Calm Calm - N/A   Clear
5:16 AM 75.2 °F - 75.2 °F 100% 29.92 in 10.0 mi Calm Calm - N/A   Clear
5:36 AM 75.2 °F - 75.2 °F 100% 29.92 in 10.0 mi Calm Calm - N/A   Clear
6:15 AM 75.2 °F - 75.2 °F 100% 29.93 in 10.0 mi SW 3.5 mph - N/A   Clear
6:36 AM 77.0 °F - 75.2 °F 94% 29.93 in 10.0 mi SW 3.5 mph - N/A   Clear
6:56 AM 77.0 °F - 75.2 °F 94% 29.93 in 10.0 mi Calm Calm - N/A   Scattered Clouds
7:16 AM 77.0 °F - 77.0 °F 100% 29.93 in 10.0 mi Calm Calm - N/A   Mostly Cloudy
7:36 AM 78.8 °F - 77.0 °F 94% 29.93 in 10.0 mi Calm Calm - N/A   Mostly Cloudy
7:56 AM 80.6 °F 88.1 °F 78.8 °F 94% 29.94 in 10.0 mi Calm Calm - N/A   Scattered Clouds
8:16 AM 80.6 °F 88.1 °F 78.8 °F 94% 29.94 in 10.0 mi West 3.5 mph - N/A   Clear
8:38 AM 82.4 °F 92.4 °F 78.8 °F 89% 29.95 in 10.0 mi WNW 6.9 mph - N/A   Clear
8:58 AM 84.2 °F 94.1 °F 77.0 °F 79% 29.96 in 10.0 mi WNW 5.8 mph - N/A   Clear
9:18 AM 84.2 °F 94.1 °F 77.0 °F 79% 29.97 in 10.0 mi NW 3.5 mph - N/A   Scattered Clouds
9:36 AM 87.8 °F 99.7 °F 77.0 °F 70% 29.97 in 10.0 mi NW 4.6 mph - N/A   Scattered Clouds
9:56 AM 87.8 °F 99.7 °F 77.0 °F 70% 29.96 in 10.0 mi NW 3.5 mph - N/A   Clear
10:15 AM 87.8 °F 102.5 °F 78.8 °F 75% 29.96 in 10.0 mi Calm Calm - N/A   Clear
10:36 AM 89.6 °F 104.7 °F 78.8 °F 70% 29.96 in 10.0 mi NNW 6.9 mph - N/A   Scattered Clouds
10:56 AM 89.6 °F 104.7 °F 78.8 °F 70% 29.96 in 10.0 mi NW 8.1 mph - N/A Thunderstorm Mostly Cloudy
11:36 AM 89.6 °F 104.7 °F 78.8 °F 70% 29.96 in 10.0 mi NNW 5.8 mph - N/A   Mostly Cloudy
11:56 AM 91.4 °F 107.2 °F 78.8 °F 66% 29.95 in 10.0 mi NNW 9.2 mph - N/A   Scattered Clouds
12:16 PM 91.4 °F 107.2 °F 78.8 °F 66% 29.94 in 10.0 mi NNW 11.5 mph 17.3 mph N/A   Scattered Clouds
12:36 PM 91.4 °F 107.2 °F 78.8 °F 66% 29.94 in 10.0 mi NNW 6.9 mph - N/A   Clear
12:56 PM 91.4 °F 107.2 °F 78.8 °F 66% 29.93 in 10.0 mi NNW 8.1 mph - N/A   Clear
1:16 PM 93.2 °F 110.2 °F 78.8 °F 63% 29.92 in 10.0 mi NNW 10.4 mph - N/A   Clear
1:36 PM 93.2 °F 107.2 °F 77.0 °F 59% 29.91 in 10.0 mi North 8.1 mph - N/A   Clear
1:57 PM 93.2 °F 107.2 °F 77.0 °F 59% 29.90 in 10.0 mi NW 8.1 mph - N/A Thunderstorm Clear
2:16 PM 93.2 °F 105.0 °F 75.2 °F 56% 29.89 in 10.0 mi NNW 8.1 mph - N/A   Clear
2:36 PM 93.2 °F 105.0 °F 75.2 °F 56% 29.89 in 10.0 mi NNW 6.9 mph - N/A   Clear
2:56 PM 95.0 °F 109.7 °F 77.0 °F 56% 29.89 in 10.0 mi WNW 5.8 mph - N/A   Clear
3:37 PM 95.0 °F 107.4 °F 75.2 °F 53% 29.89 in 10.0 mi West 6.9 mph - N/A Thunderstorm Scattered Clouds
4:00 PM 82.4 °F 88.2 °F 73.4 °F 74% 29.92 in 10.0 mi SSW 20.7 mph 35.7 mph N/A Thunderstorm Mostly Cloudy
4:16 PM 80.6 °F 85.4 °F 73.4 °F 79% 29.93 in 10.0 mi South 15.0 mph 25.3 mph N/A   Overcast
4:56 PM 80.6 °F 86.2 °F 75.2 °F 84% 29.92 in 10.0 mi SSE 10.4 mph - N/A Thunderstorm Mostly Cloudy
5:16 PM 80.6 °F 86.2 °F 75.2 °F 84% 29.89 in 10.0 mi SSW 5.8 mph - N/A   Scattered Clouds
5:36 PM 82.4 °F 89.5 °F 75.2 °F 79% 29.89 in 10.0 mi SW 5.8 mph - N/A Thunderstorm Clear
5:56 PM 82.4 °F 89.5 °F 75.2 °F 79% 29.91 in 10.0 mi WSW 3.5 mph - N/A   Clear
6:16 PM 80.6 °F 86.2 °F 75.2 °F 84% 29.92 in 10.0 mi Calm Calm - N/A   Clear
6:55 PM 80.6 °F 86.2 °F 75.2 °F 84% 29.93 in 10.0 mi Calm Calm - N/A   Clear
7:16 PM 80.6 °F 86.2 °F 75.2 °F 84% 29.93 in 10.0 mi Calm Calm - N/A   Scattered Clouds
7:56 PM 80.6 °F 87.1 °F 77.0 °F 89% 29.95 in 10.0 mi ESE 3.5 mph - N/A Rain Rain
8:16 PM 78.8 °F - 77.0 °F 94% 29.95 in 10.0 mi East 4.6 mph - 0.01 in Rain Light Rain
8:36 PM 78.8 °F - 77.0 °F 94% 29.94 in 10.0 mi ENE 4.6 mph - 0.01 in Rain Light Rain
8:56 PM 78.8 °F - 75.2 °F 89% 29.95 in 10.0 mi Calm Calm - 0.01 in   Light Drizzle
9:16 PM 78.8 °F - 77.0 °F 94% 29.95 in 10.0 mi SW 3.5 mph - N/A   Clear
9:36 PM 78.8 °F - 77.0 °F 94% 29.95 in 7.0 mi West 4.6 mph - N/A   Clear
9:56 PM 77.0 °F - 77.0 °F 100% 29.96 in 10.0 mi South 3.5 mph - N/A   Clear
10:17 PM 77.0 °F - 77.0 °F 100% 29.97 in 10.0 mi Calm Calm - N/A   Clear
10:36 PM 77.0 °F - 77.0 °F 100% 29.97 in 10.0 mi SW 4.6 mph - N/A   Clear
10:57 PM 77.0 °F - 77.0 °F 100% 29.97 in 10.0 mi Calm Calm - N/A   Mostly Cloudy
11:19 PM 77.0 °F - 77.0 °F 100% 29.96 in 10.0 mi Calm Calm - N/A   Mostly Cloudy
11:36 PM 77.0 °F - 77.0 °F 100% 29.97 in 10.0 mi Calm Calm - N/A   Scattered Clouds
11:55 PM 77.0 °F - 77.0 °F 100% 29.96 in 10.0 mi Calm Calm - N/A   Clear